Погода Корнесты

Погода Корнесты : погода сейчас, прогноз погоды и архив. Всё, что Вы хотите узнать о погоде Корнесты!

Поиск расширенной информации на нашем сайте:

Другие новости

Новости СМИ2

Главная страница сайта

Новости сайта

03.07.2017

Напоминаем, что на нашем специализированном сайте Метеоцентр.Азия вы можете получить высокодетализированные автоматические прогнозы погоды по пунктам России, СНГ и мира в авиационном формате (включающие направление и скорость ветра, видимость, явления погоды, количество и форму облачности, нижнюю и верхнюю границу облачности).


Погода Корнесты - сегодня

Время (UTC), дата Ветер
(°,м/с) 
Видим.   Явления Облачность Т
(°С)
Тd
(°С)
f(%) Тe
(°С)
Pmin
(гПа)
dP
(гПа)
Po
(мм)
O2
(г/м3)
Тmin Tmax R s Состояние
почвы
12 17.07.18 290 (З) 10 км    8/8 600 м кучево-дожд. 
[Cb calv]
+27.2 +17.1 54 +40  1002.5  -1.1  732  265           
15 17.07.18 290 (З) 10 км    9/6 600 м средняя, верхняя 
[Sc|Ac trans|Ci fib]
+24.9 +15.8 57 +36  1002.2  -0.5  732  267           
18 17.07.18 290 (З) 10 км    3/3 420 м средняя 
[Ac trans]
+21.9 +16.6 72 +34  1002.7  0.2  732  269    +27.7       
21 17.07.18 тихо ()   10 км    3/0 средняя 
[Ac trans]
+19.9 +17.7 87 +34  1003.2  0.3  732  271           
00 18.07.18 тихо ()   10 км    ясно 
+18.6 +18.3 98 +34  1002.9  -0.4  732  272           
03 18.07.18 тихо ()   10 км    4/0 средняя, верхняя 
[Ac trans|Ci fib]
+17.8 +17.8 100 +33  1002.7  -0.2  732  273           
06 18.07.18 280 (З) 10 км    3/3 400 м средняя, верхняя 
[Ac trans|Ci fib]
+21.7 +19.6 88 +40  1002.4  0.1  732  268  +17.7         
09 18.07.18 310 (СЗ) 10 км    5/4 600 м кучево-дожд., верхняя 
[Cb calv|Cs]
+26.7 +19.3 64 +45  1001.1  -0.9  731  264           
12 18.07.18 290 (З) 10 км    9/8 600 м кучево-дожд., верхняя 
[Cb calv|Cs]
+28.4 +17 50 +42  1000.3  -0.6  731  263           
15 18.07.18 310 (СЗ) 10 км    9/8 600 м кучево-дожд., верхняя 
[Cb calv|Cs]
+26.3 +17.4 58 +40  1000.4  -0.1  731  265           
18 18.07.18 320 (СЗ) 10 км    9/5 600 м средняя 
[Sc|Ac trans]
+23.1 +18 73 +38  1001.4  0.7  731  268    +28.7       
00 19.07.18 тихо ()   2000 м  слаб. ливневой дождь  10/10 600 м кучево-дожд. 
[Cb cap]
+19.2 +19.2 100 +37  1001.6  -0.4  731  271           
03 19.07.18 тихо ()   0200 м  туман{ливн. осадки}  ?/?  
+19.2 +19.2 100 +37  1001.2  -0.3  731  271           
06 19.07.18 050 (СВ) 2000 м  дымка{ливн. осадки, туман}  8/8 600 м кучево-дожд., верхняя 
[Cb calv|Ci fib]
+21.4 +21.1 98 +44  1001.8  0.8  732  268  +1.8    19     
09 19.07.18 040 (СВ) 10 км    8/8 600 м кучево-дожд., верхняя 
[Cb calv|Ci fib]
+25.8 +21.5 77 +49  1001.9  0.5  732  264           
12 19.07.18 320 (СЗ) 10 км  гроза без осадков{ливн. осадки}  8/8 600 м кучево-дожд., верхняя 
[Cb cap|Ci fib]
+23.8 +23.8 100 +53  1002.7  0.6  732  265           
15 19.07.18 280 (З) 10 км  в посл. час гроза{ливн. осадки}  8/5 600 м кучево-дожд., верхняя 
[Cb calv|Cs]
+26.5 +23 81 +54  1003  0.5  733  263           
18 19.07.18 280 (З) 10 км  {гроза, ливн. осадки}  6/5 600 м верхняя 
[Sc|Cs]
+22.5 +22.2 98 +47  1004.5  1.1  734  267    +27.4     
21 19.07.18 250 (З) 10 км    4/3 600 м средняя 
[Sc|Ac trans]
+19.9 +19.4 97 +39  1005.5  0.7  734  271           
00 20.07.18 280 (З) 10 км    9/0 средняя 
[Ac trans]
+19.8 +19.8 100 +40  1006  0.5  734  271           
03 20.07.18 290 (З) 10 км    9/8 600 м кучево-дожд., средняя 
[Cb calv|Ac trans]
+19.5 +19.5 100 +39  1006.6  0.5  735  272           
06 20.07.18 310 (СЗ) 4000 м  дымка  10/10 360 м кучево-дожд. 
[Cb calv]
+20.9 +20.4 97 +41  1007.1  0.7  735  270  +19.3         
09 20.07.18 290 (З) 10 км    9/9 600 м кучево-дожд. 
[Cb calv]
+22.9 +20.6 87 +44  1007.2  0.2  736  268           
12 20.07.18 300 (СЗ) 10 км    8/8 600 м 
[Cu hum]
+27.9 +21.7 69 +51  1006.2  -0.5  735  263           
15 20.07.18 310 (СЗ) 10 км    6/1 600 м верхняя 
[Cu hum|Ci fib]
+27.7 +19.8 62 +47  1005.7  -0.5  735  264           
Время (UTC), дата Ветер
(°,м/с) 
Видим.   Явления Облачность Т
(°С)
Тd
(°С)
f(%) Тe
(°С)
Pmin
(гПа)
dP
(гПа)
Po
(мм)
O2
(г/м3)
Тmin Tmax R s Состояние
почвы

Для получения пояснительной информации подведите курсор к названию столбца.

ПОГОДА Корнесты - архив

Всё, что Вы хотите узнать о погоде Корнесты - удобно и подробно!

Выберите нужную дату (начиная с 1 января 2015* года) и нажмите кнопку "Найти".
Будут отображены архивные сводки погоды по пункту Корнесты, начиная с указанной даты.


Отображать данные в формате CSV (для использования в таблицах Excel)


Внимание! Наш архив погоды предназначен исключительно для личного некоммерческого использования в познавательных целях. Если Вам необходимы официальные справки о состоянии погоды (для производственных, юридических, коммерческих и т.п. целей), обращайтесь в органы Росгидромета.

*Примечание: данная дата относится к архиву по метеостанциям СССР (Россия, СНГ, Балтия).
Архив по метеостанциям Зарубежной Европы и Азии (кроме Китая) хранится 10 дней, по другим регионам земного шара (Китай, Африка, Америка, Австралия, Океания) - 1 день.

Корнесты - район местоположения метеостанции


Название, широта, долгота, высота метеостанции:
Корнесты 47.3°ш. 28.1°д. 232 м над ур. моря [Молдавия]

Дополнительная информация

В oтличие oт бoльшинства пoгoдных сайтoв мы публикуем пoдрoбную метеoинфoрмацию в детальнoм прoфессиoнальнoм фoрмате.

Характеристики температуры и влажнoсти вoздуха измеряются на высoте 2 м в тени вдали oт зданий и деревьев.
Скoрoсть ветра измеряется на высoте 10 м (на урoвне рoста челoвека скoрoсть ветра ниже в 1.5-2 раза). Если метеoстанция нахoдится в гoрoде или в лесу, тo скoрoсть ветра занижена на 2-4 м/с пo сравнению с oткрытым местoм. Скoрoсть ветра над акватoриями крупных рек и oзёр, а также на вершинах хoлмoв на 2-5 м/с выше, чем в oбычных услoвиях.
Атмoсфернoе давление в разных тoчках местнoсти мoжет значительнo oтличаться oт давления на метеoстанции, в зависимoсти oт услoвий рельефа (при пoдъёме на 10 м давление пoнижается примернo на 1 мм рт.ст.).